EW4964 Weather Reports


time (UTC)temp
F
wind
direction
speed
knots
gust
knots
rain 1hr
in
rain 24hr
in
rain mn
in
humidity
%
barometer
mb
20260506154507 67 188 6.1 13.0 0.00 0.00 0.00 27 1009.4
20260506153007 66 207 7.0 12.2 0.00 0.00 0.00 28 1009.5
20260506151507 69 164 6.1 13.0 0.00 0.00 0.00 27 1009.4
20260506150007 69 215 6.1 9.6 0.00 0.00 0.00 29 1009.7
20260506144507 67 213 6.1 9.6 0.00 0.00 0.00 28 1010.0
20260506143007 66 193 6.1 12.2 0.00 0.00 0.00 28 1010.2
20260506141506 67 174 5.2 10.4 0.00 0.00 0.00 29 1010.2
20260506134506 65 256 6.1 16.5 0.00 0.00 0.00 28 1010.3
20260506133006 66 196 4.3 7.0 0.00 0.00 0.00 27 1010.6
20260506131507 66 237 5.2 9.6 0.00 0.00 0.00 27 1010.6
20260506130006 66 249 5.2 9.6 0.00 0.00 0.00 27 1010.9
20260506124507 64 228 4.3 9.6 0.00 0.00 0.00 28 1011.1
20260506123007 65 276 3.5 5.2 0.00 0.00 0.00 28 1011.2
20260506121507 66 286 3.5 8.7 0.00 0.00 0.00 28 1011.2
20260506120006 67 248 4.3 8.7 0.00 0.00 0.00 27 1011.4
20260506114506 67 256 3.5 7.8 0.00 0.00 0.00 27 1011.3
20260506113006 67 299 2.6 5.2 0.00 0.00 0.00 29 1011.4
20260506111506 67 296 3.5 8.7 0.00 0.00 0.00 27 1011.6
20260506104506 67 269 3.5 7.0 0.00 0.00 0.00 28 1011.9
20260506101506 65 276 4.3 7.8 0.00 0.00 0.00 31 1011.9
20260506100006 64 291 3.5 7.0 0.00 0.00 0.00 31 1012.0
20260506094506 64 272 3.5 9.6 0.00 0.00 0.00 31 1012.1
20260506091506 63 270 4.3 8.7 0.00 0.00 0.00 32 1011.9
20260506090006 61 277 3.5 7.8 0.00 0.00 0.00 35 1011.9
20260506084506 60 343 5.2 9.6 0.00 0.00 0.00 37 1012.1
20260506073006 56 292 4.3 9.6 0.00 0.00 0.00 41 1011.8
20260506071505 57 335 4.3 8.7 0.00 0.00 0.00 42 1011.6
20260506061505 54 328 3.5 12.2 0.00 0.00 0.00 46 1011.6
20260506044505 51 339 4.3 7.0 0.00 0.00 0.00 72 1011.1
20260506043005 50 342 2.6 5.2 0.00 0.00 0.00 72 1010.8
20260506040006 50 1 2.6 4.3 0.00 0.00 0.00 69 1010.7
20260506031505 51 1 1.7 6.1 0.00 0.00 0.00 64 1010.7
20260506030005 51 1 1.7 3.5 0.00 0.00 0.00 62 1010.6
20260506024505 51 1 0.9 2.6 0.00 0.00 0.00 61 1010.5
20260506023004 51 1 0.9 1.7 0.00 0.00 0.00 61 1010.4
20260506020005 52 1 1.7 3.5 0.00 0.00 0.00 61 1010.3
20260506014505 52 358 2.6 5.2 0.00 0.00 0.00 58 1010.1
20260506010005 52 1 1.7 4.3 0.00 0.00 0.00 54 1010.4
20260506004505 52 1 2.6 7.0 0.00 0.00 0.00 51 1010.1
20260506000004 52 327 1.7 3.5 0.00 0.00 0.00 44 1009.8
20260505234505 52 272 1.7 4.3 0.00 0.00 0.00 43 1010.3
20260505233004 53 316 1.7 3.5 0.00 0.00 0.00 41 1009.9
20260505230008 53 240 2.6 9.6 0.00 0.00 0.00 39 1009.8
20260505224507 53 245 3.5 7.0 0.00 0.00 0.00 38 1009.8
20260505220010 53 222 5.2 10.4 0.00 0.00 0.00 36 1009.4
20260505214507 54 247 6.1 9.6 0.00 0.00 0.00 36 1009.5
20260505213008 54 262 5.2 10.4 0.00 0.00 0.00 35 1009.5
20260505211507 55 209 5.2 8.7 0.00 0.00 0.00 35 1009.4
20260505210008 55 208 6.1 11.3 0.00 0.00 0.00 34 1009.7
20260505204507 55 188 6.1 9.6 0.00 0.00 0.00 34 1009.8
20260505203008 56 144 6.1 11.3 0.00 0.00 0.00 34 1009.9
20260505200007 57 209 5.2 9.6 0.00 0.00 0.00 33 1010.0
20260505194507 57 225 6.1 9.6 0.00 0.00 0.00 33 1010.0
20260505193007 58 165 5.2 9.6 0.00 0.00 0.00 33 1009.8
20260505191507 58 219 4.3 8.7 0.00 0.00 0.00 32 1009.8
20260505190007 59 204 4.3 9.6 0.00 0.00 0.00 32 1009.6
20260505183007 61 217 4.3 9.6 0.00 0.00 0.00 31 1009.8
20260505181507 62 166 5.2 9.6 0.00 0.00 0.00 27 1009.9
20260505180007 63 224 2.6 8.7 0.00 0.00 0.00 26 1009.9
20260505174507 63 225 2.6 6.1 0.00 0.00 0.00 25 1009.7
20260505173007 64 225 1.7 6.1 0.00 0.00 0.00 23 1009.7
20260505171507 65 225 1.7 3.5 0.00 0.00 0.00 23 1009.7
20260505170007 66 225 2.6 3.5 0.00 0.00 0.00 22 1009.8
20260505164507 68 166 1.7 4.3 0.00 0.00 0.00 22 1009.8
20260505163008 70 172 2.6 6.1 0.00 0.00 0.00 22 1010.2
20260505161507 73 190 3.5 13.0 0.00 0.00 0.00 21 1010.3